Weather Roundup
Issued by NWS

Home | Current Version | Previous Version | Graphics & Text | Print | Product List | Glossary Off
Versions: 1 2 3 4 5 6 7 8 9 10 11 12 13 14 15 16 17 18 19 20 21 22 23 24 25 26 27 28 29 30 31 32 33 34 35 36 37 38 39 40 41 42 43 44 45 46 47 48 49 50

000
NZUS93 KARX 301759
HRRWXR

CURRENT HOURLY OBSERVATIONS ACROSS
MUCH OF THE UPPER MISSISSIPPI VALLEY
NATIONAL WEATHER SERVICE LA CROSSE WI
100 PM CDT TUE JUN 30 2015


...SOUTHEAST MINNESOTA...


CITY           SKY/WX    TMP DP  RH WIND       PRES   REMARKS
ROCHESTER      CLOUDY    67  60  78 NE13      29.95R
ROCHESTER/MAYO CLOUDY    66  59  79 N7        29.95S
WINONA         CLOUDY    70  61  73 N8        29.92F
AUSTIN         MOSUNNY   73  61  64 N8        29.92S
ALBERT LEA     MOSUNNY   75  61  60 NE8       29.92F
DODGE CENTER   SUNNY     72  61  68 N8        29.94R
PRESTON        CLOUDY    67  60  79 N7        29.94R
OWATONNA       SUNNY     73  59  60 N10       29.93S
FARIBAULT      MOSUNNY   73  61  64 N8        29.94S
$$

...ELSEWHERE IN MINNESOTA...


CITY           SKY/WX    TMP DP  RH WIND       PRES   REMARKS
MINNEAPOLIS    MOSUNNY   72  58  61 N9        29.94S
INTNL FALLS    MOSUNNY   66  49  54 NE9       29.99S
DULUTH         PTSUNNY   61  47  59 SE10      29.98F
RED WING       MOSUNNY   73  57  56 N5        29.92F
REDWOOD FALLS  PTSUNNY   73  59  61 E6        29.94F
MANKATO        PTSUNNY   73  57  56 NE9       29.94S
WORTHINGTON    MOSUNNY   72  63  73 N3        29.96S
FAIRMONT       MOSUNNY   73  61  64 NE7       29.93S
$$

...SOUTHWEST WISCONSIN...


CITY           SKY/WX    TMP DP  RH WIND       PRES   REMARKS
LA CROSSE      CLOUDY    69  60  73 NW9       29.90F
PRAIRIE DU CHI PTSUNNY   71  60  66 N5        29.88S
BOSCOBEL       MOSUNNY   74  61  63 NE7       29.88F
LONE ROCK      NOT AVBL
PLATTEVILLE    SUNNY     71  63  77 NW9       29.88S
FORT MC COY    PTSUNNY   71  58  65 N8        29.91S
VIROQUA        CLOUDY    68  59  72 N8        29.91F
WIS DELLS      CLOUDY    70  57  62 N10       29.87F
$$

...ELSEWHERE IN WISCONSIN...


CITY           SKY/WX    TMP DP  RH WIND       PRES   REMARKS
MILWAUKEE      PTSUNNY   66  58  75 NE13      29.82R
MADISON        PTSUNNY   72  60  66 N13       29.85F
GREEN BAY      CLOUDY    67  57  70 N12       29.86R
EAU CLAIRE     NOT AVBL
BLACK RVR FLS  CLOUDY    70  56  61 NW6       29.91S
MEDFORD        CLOUDY    62  52  70 N13       29.93R
WAUSAU         CLOUDY    65  52  62 N13       29.89R
WIS RAPIDS     PTSUNNY   70  54  56 N13       29.90S
MARSHFIELD     CLOUDY    68  53  58 NW13      29.90F
RICE LAKE      MOSUNNY   67  53  61 N12       29.95F
$$

...NORTHEAST IOWA...


CITY           SKY/WX    TMP DP  RH WIND       PRES   REMARKS
DECORAH        NOT AVBL
MASON CITY     PTSUNNY   77  63  61 N13       29.93S
CHARLES CITY   MOSUNNY   75  66  73 N8        29.91S
OELWEIN        PTSUNNY   75  64  69 N9        29.90S
$$

...ELSEWHERE IN IOWA...


CITY           SKY/WX    TMP DP  RH WIND       PRES   REMARKS
DES MOINES     CLOUDY    80  65  59 VRB5      29.90R
IOWA CITY      SUNNY     79  65  62 NE7       29.87S
FORT DODGE     MOSUNNY   75  63  64 NW3       29.93S
$$

...NORTHERN ILLINOIS...


CITY           SKY/WX    TMP DP  RH WIND       PRES   REMARKS
CHICAGO-OHARE  PTSUNNY   74  61  63 NW10      29.81F
CHICAGO-MIDWAY PTSUNNY   78  61  55 N13       29.81S
MOLINE         SUNNY     80  63  55 N9        29.85S
ROCKFORD       PTSUNNY   74  61  63 N9        29.86S
PEORIA         SUNNY     82  61  48 N3        29.85S
$$

NOTE: "FAIR" INDICATES FEW OR NO CLOUDS BELOW 12,000 FEET WITH NO
SIGNIFICANT WEATHER AND/OR OBSTRUCTIONS TO VISIBILITY. WIND
SPEEDS ARE IN MILES-PER-HOUR.



USA.gov is the U.S. government's official web portal to all federal, state and local government web resources and services.